Tracking 34151 objects as of 20-May-2026
HD Live streaming from Space Station
objects crossing your sky now

COSMOS 1581

Track COSMOS 1581 now!
COSMOS 1581 is classified as:


NORAD ID: 15095
Int'l Code: 1984-071A
Perigee: 2,468.5 km
Apogee: 38,058.8 km
Inclination: 67.4 °
Period: 721.0 minutes
Semi major axis: 26634 km
RCS: 9.1322 m2 (large)
Launch date: July 3, 1984
Source: Commonwealth of Independent States (former USSR) (CIS)
Launch site: PLESETSK MISSILE AND SPACE COMPLEX (PKMTR)
Your satellite tracking list
Your tracking list is empty




NASA's NSSDC Master Catalog

Two Line Element Set (TLE):
1 15095U 84071A   26139.35555343  .00000444  00000-0  00000-0 0  9996
2 15095  67.3795  20.0372 6681198   2.1908 359.8778  1.99725081279896
Source of the keplerian elements: AFSPC